Torna al catalogo

SL-8 R/B

AttivoLEO
NORAD 21419·ROCKET BODY·🇷🇺 Russia

Lanciato Jun 11, 1991 da Plesetsk Cosmodrome

Loading…

Prossimi Passaggi (prossime 24 ore)

TLE

AggiornatoSource: Space-Track

Epoca: Sep 14, 2026, 15:43 UTC

1 21419U 91041B   26257.65516773  .00000015  00000-0  14298-4 0  9998
2 21419  74.0371 239.4998 0039031  61.3681 299.1388 14.35295813844227

Traccia SL-8 R/B in tempo reale con AllMySat

Download on the App Store